Ellsworth AFB, SD

9:17 AM MDT on March 29, 2017 (GMT -0600)
Ellsworth Air Force Base

Weather History for KRCA - February, 2014

Change the Weather History Date:

Saturday, February 22, 2014

  Actual Average Record
Temperature  
Mean Temperature 20 °F -  
Max Temperature 25 °F 37 °F 68 °F (2002)
Min Temperature 14 °F 17 °F 0 °F (2011)
Degree Days  
Heating Degree Days 45    
Moisture  
Dew Point 17 °F    
Average Humidity 81    
Maximum Humidity 93    
Minimum Humidity 62    
Precipitation  
Precipitation 0.00 in - - ()
Sea Level Pressure  
Sea Level Pressure 30.03 in    
Wind  
Wind Speed 10 mph (NNE)    
Max Wind Speed 21 mph    
Max Gust Speed 25 mph    
Visibility 8 miles    
Events Fog , Snow    
Averages and records for this station are not official NWS values.
T = Trace of Precipitation, MM = Missing Value Source: NWS Daily Summary

Daily Weather History Graph

Daily Weather History Graph

Search for Another Location

Airport or City:

Trip Planner

Search our weather history database for the weather conditions in past years. The results will help you decide how hot, cold, wet, or windy it might be!

Date:

Astronomy

Feb. 22, 2014 Rise Set
Actual Time 6:40 AM MST 5:31 PM MST
Civil Twilight 6:11 AM MST 6:00 PM MST
Nautical Twilight 5:38 AM MST 6:34 PM MST
Astronomical Twilight 5:04 AM MST 7:07 PM MST
Moon 12:43 AM MST (2/22) 10:38 AM MST (2/22)
Length of Visible Light 11h 49m
Length of Day
10h 50m
Waning Gibbous, 49% of the Moon is Illuminated
Feb 22
Waning Gibbous
Mar 1
New
Mar 8
First Quarter
Mar 16
Full
Mar 23
Last Quarter

Hourly Weather History & Observations

Time (MST) Temp. Windchill Dew Point Humidity Pressure Visibility Wind Dir Wind Speed Gust Speed Precip Events Conditions
12:58 AM 25.9 °F 16.6 °F 21.2 °F 82% 29.95 in 10.0 mi NNW 9.2 mph - N/A   Partly Cloudy
1:58 AM 25.2 °F 16.5 °F 20.1 °F 81% 29.95 in 10.0 mi North 8.1 mph - N/A   Clear
2:58 AM 25.0 °F 16.3 °F 20.3 °F 82% 29.96 in 10.0 mi North 8.1 mph - N/A   Partly Cloudy
3:58 AM 24.6 °F 15.1 °F 20.5 °F 84% 29.99 in 10.0 mi North 9.2 mph - N/A   Mostly Cloudy
4:33 AM 23.0 °F 17.0 °F 19.4 °F 86% 29.89 in 10.0 mi North 4.6 mph - N/A   Mostly Cloudy
4:53 AM 24.8 °F 16.1 °F 21.2 °F 86% 29.90 in 10.0 mi NNW 8.1 mph - N/A   Overcast
4:58 AM 24.4 °F 15.6 °F 20.5 °F 85% 30.01 in 10.0 mi NNW 8.1 mph - N/A   Overcast
5:02 AM 24.8 °F 15.3 °F 19.4 °F 80% 29.90 in 10.0 mi NNW 9.2 mph - N/A   Overcast
5:17 AM 24.8 °F 15.3 °F 21.2 °F 86% 29.90 in 10.0 mi NNE 9.2 mph - N/A   Overcast
5:18 AM 24.8 °F 15.3 °F 21.2 °F 86% 29.90 in 10.0 mi NNE 9.2 mph - N/A   Overcast
5:23 AM 24.8 °F 14.6 °F 21.2 °F 86% 29.91 in 10.0 mi NE 10.4 mph - N/A   Overcast
5:58 AM 23.0 °F 13.1 °F 19.6 °F 87% 30.04 in 10.0 mi NNE 9.2 mph - 0.00 in   Overcast
6:08 AM 23.0 °F 14.7 °F 19.4 °F 86% 29.93 in 10.0 mi NE 6.9 mph - N/A   Overcast
6:17 AM 21.2 °F 11.7 °F 19.4 °F 93% 29.93 in 10.0 mi NE 8.1 mph - N/A   Overcast
6:22 AM 21.2 °F 12.6 °F 19.4 °F 93% 29.93 in 10.0 mi ENE 6.9 mph - N/A   Overcast
6:31 AM 21.2 °F 12.6 °F 17.6 °F 86% 29.93 in 10.0 mi NE 6.9 mph - N/A   Overcast
6:33 AM 21.2 °F 13.6 °F 17.6 °F 86% 29.93 in 10.0 mi ENE 5.8 mph - N/A   Overcast
6:43 AM 21.2 °F 14.9 °F 17.6 °F 86% 29.94 in 10.0 mi NE 4.6 mph - N/A   Overcast
6:58 AM 21.2 °F 12.6 °F 17.6 °F 86% 30.05 in 10.0 mi ENE 6.9 mph - 0.00 in   Overcast
7:02 AM 21.2 °F 12.6 °F 17.6 °F 86% 29.93 in 10.0 mi ENE 6.9 mph - N/A   Overcast
7:18 AM 21.2 °F 13.6 °F 17.6 °F 86% 29.94 in 9.0 mi East 5.8 mph - N/A   Overcast
7:42 AM 21.2 °F 11.7 °F 17.6 °F 86% 29.95 in 10.0 mi ENE 8.1 mph - N/A Snow Light Snow
7:58 AM 21.4 °F 11.9 °F 17.6 °F 85% 30.07 in 10.0 mi NNE 8.1 mph - 0.00 in   Mostly Cloudy
8:26 AM 21.2 °F 10.9 °F 17.6 °F 86% 29.95 in 10.0 mi NNE 9.2 mph - N/A   Scattered Clouds
8:58 AM 22.8 °F 15.5 °F 18.1 °F 82% 30.09 in 10.0 mi NE 5.8 mph - 0.00 in   Mostly Cloudy
9:23 AM 23.0 °F 15.8 °F 17.6 °F 80% 29.97 in 10.0 mi NE 5.8 mph - N/A   Overcast
9:58 AM 23.4 °F 16.2 °F 17.4 °F 78% 30.09 in 10.0 mi NNE 5.8 mph - N/A   Overcast
10:08 AM 23.0 °F 17.0 °F 17.6 °F 80% 29.97 in 10.0 mi NE 4.6 mph - N/A   Overcast
10:42 AM 23.0 °F 13.9 °F 17.6 °F 80% 29.98 in 10.0 mi NE 8.1 mph - N/A   Overcast
10:47 AM 23.0 °F 13.9 °F 17.6 °F 80% 29.98 in 9.0 mi NNE 8.1 mph - N/A   Overcast
10:58 AM 23.5 °F 13.7 °F 18.5 °F 81% 30.12 in 3.0 mi North 9.2 mph - 0.00 in Snow Light Snow
11:03 AM 23.0 °F 11.7 °F 19.4 °F 86% 29.99 in 2.5 mi NNE 11.5 mph - N/A Snow Light Snow
11:08 AM 23.0 °F 11.1 °F 19.4 °F 86% 29.99 in 2.0 mi North 12.7 mph - N/A Snow Light Snow
11:13 AM 23.0 °F 10.1 °F 19.4 °F 86% 30.00 in 1.8 mi North 15.0 mph - N/A Snow Light Snow
11:18 AM 23.0 °F 11.1 °F 19.4 °F 86% 30.00 in 1.8 mi NNE 12.7 mph - N/A Snow Light Snow
11:23 AM 21.2 °F 6.0 °F 19.4 °F 93% 30.00 in 1.5 mi NNE 19.6 mph - N/A Snow Light Snow
11:28 AM 21.2 °F 6.4 °F 17.6 °F 86% 30.00 in 1.0 mi NNE 18.4 mph - N/A Snow Light Snow
11:33 AM 21.2 °F 6.4 °F 17.6 °F 86% 30.00 in 1.0 mi North 18.4 mph - N/A Snow Light Snow
11:38 AM 21.2 °F 5.6 °F 17.6 °F 86% 30.00 in 0.5 mi North 20.7 mph - N/A Fog , Snow Light Freezing Fog
11:43 AM 21.2 °F 6.8 °F 17.6 °F 86% 30.01 in 0.5 mi North 17.3 mph - N/A Fog , Snow Light Freezing Fog
11:53 AM 21.2 °F 6.0 °F 17.6 °F 86% 30.00 in 1.0 mi North 19.6 mph - N/A Snow Light Snow
11:58 AM 21.2 °F 6.4 °F 15.8 °F 80% 30.14 in 1.0 mi North 18.4 mph - 0.00 in Snow Light Snow
12:03 PM 21.2 °F 6.8 °F 15.8 °F 80% 30.00 in 1.8 mi North 17.3 mph - N/A Snow Light Snow
12:08 PM 21.2 °F 7.8 °F 15.8 °F 80% 30.00 in 2.5 mi North 15.0 mph - N/A Snow Light Snow
12:18 PM 21.2 °F 8.9 °F 15.8 °F 80% 30.00 in 4.0 mi North 12.7 mph - N/A Snow Light Snow
12:23 PM 21.2 °F 7.3 °F 15.8 °F 80% 30.00 in 8.0 mi North 16.1 mph - N/A Snow Light Snow
12:58 PM 22.3 °F 8.2 °F 16.5 °F 79% 30.12 in 10.0 mi North 17.3 mph 21.9 mph 0.00 in   Overcast
1:48 PM 21.2 °F 6.8 °F 15.8 °F 80% 29.99 in 10.0 mi North 17.3 mph - N/A   Overcast
1:58 PM 21.2 °F 7.3 °F 15.8 °F 80% 30.13 in 10.0 mi North 16.1 mph 21.9 mph 0.00 in   Overcast
2:07 PM 21.2 °F 6.4 °F 14.0 °F 74% 29.99 in 10.0 mi North 18.4 mph - N/A   Overcast
2:17 PM 21.2 °F 6.8 °F 14.0 °F 74% 30.00 in 10.0 mi North 17.3 mph 25.3 mph N/A   Overcast
2:58 PM 21.2 °F 6.0 °F 13.6 °F 73% 30.14 in 10.0 mi North 19.6 mph - 0.00 in   Overcast
3:58 PM 21.2 °F 6.0 °F 9.9 °F 62% 30.15 in 10.0 mi North 19.6 mph 25.3 mph N/A   Overcast
4:58 PM 20.8 °F 5.9 °F 10.9 °F 66% 30.17 in 10.0 mi North 18.4 mph - N/A   Overcast
5:58 PM 19.9 °F 4.3 °F 11.5 °F 70% 30.20 in 10.0 mi North 19.6 mph - N/A   Overcast
6:58 PM 18.5 °F 3.8 °F 13.1 °F 79% 30.24 in 10.0 mi North 16.1 mph - N/A   Overcast
7:58 PM 17.2 °F 6.8 °F 11.3 °F 78% 30.26 in 10.0 mi North 8.1 mph - N/A   Scattered Clouds
8:58 PM 17.4 °F 5.4 °F 8.2 °F 67% 30.27 in 10.0 mi North 10.4 mph - N/A   Clear
9:58 PM 17.2 °F 3.9 °F 10.0 °F 73% 30.29 in 10.0 mi North 12.7 mph - N/A   Scattered Clouds
10:13 PM 17.6 °F 5.7 °F 8.6 °F 68% 30.14 in 10.0 mi North 10.4 mph - N/A   Mostly Cloudy
10:18 PM 17.6 °F 6.4 °F 8.6 °F 68% 30.14 in 10.0 mi North 9.2 mph - N/A   Mostly Cloudy
10:43 PM 15.8 °F 2.7 °F 8.6 °F 73% 30.13 in 10.0 mi NNW 11.5 mph - N/A   Overcast
10:58 PM 16.2 °F 1.9 °F 9.0 °F 73% 30.30 in 10.0 mi NNW 13.8 mph - N/A   Scattered Clouds
11:58 PM 14.5 °F -0.7 °F 7.3 °F 73% 30.31 in 10.0 mi North 15.0 mph - N/A   Clear